| time (UTC) | temp F | wind direction | speed MPH | gust MPH | rain 1hr in | rain 24hr in | rain mn in | humidity % | barometer mb |
| 20260509094015 | 58 | 75 | 5.0 | 13.0 | 0.00 | 0.17 | 0.01 | 73 | 1004.5 |
| 20260509093015 | 58 | 103 | 5.0 | 14.0 | 0.00 | 0.17 | 0.01 | 75 | 1004.5 |
| 20260509092015 | 55 | 94 | 6.0 | 11.0 | 0.00 | 0.18 | 0.01 | 79 | 1004.6 |
| 20260509091015 | 54 | 101 | 5.0 | 11.0 | 0.00 | 0.18 | 0.01 | 76 | 1004.8 |
| 20260509090016 | 54 | 109 | 4.0 | 13.0 | 0.00 | 0.18 | 0.01 | 76 | 1004.8 |
| 20260509085016 | 54 | 108 | 6.0 | 11.0 | 0.00 | 0.18 | 0.01 | 75 | 1004.7 |
| 20260509084016 | 55 | 91 | 5.0 | 13.0 | 0.00 | 0.18 | 0.01 | 74 | 1004.5 |
| 20260509083016 | 56 | 114 | 4.0 | 12.0 | 0.00 | 0.18 | 0.01 | 74 | 1004.5 |
| 20260509082018 | 56 | 89 | 7.0 | 11.0 | 0.00 | 0.18 | 0.01 | 75 | 1004.4 |
| 20260509081015 | 55 | 86 | 5.0 | 12.0 | 0.00 | 0.18 | 0.01 | 76 | 1004.5 |
| 20260509080015 | 55 | 77 | 4.0 | 13.0 | 0.00 | 0.18 | 0.01 | 76 | 1004.6 |
| 20260509075015 | 54 | 91 | 4.0 | 12.0 | 0.00 | 0.18 | 0.01 | 77 | 1004.6 |
| 20260509074015 | 54 | 83 | 6.0 | 9.0 | 0.00 | 0.18 | 0.01 | 77 | 1004.6 |
| 20260509073015 | 54 | 97 | 4.0 | 10.0 | 0.00 | 0.18 | 0.01 | 79 | 1004.5 |
| 20260509072015 | 53 | 87 | 2.0 | 11.0 | 0.00 | 0.20 | 0.01 | 81 | 1004.6 |
| 20260509071016 | 53 | 89 | 2.0 | 8.0 | 0.00 | 0.20 | 0.01 | 82 | 1004.4 |
| 20260509070016 | 53 | 80 | 4.0 | 10.0 | 0.00 | 0.20 | 0.01 | 83 | 1004.5 |
| 20260509065016 | 52 | 93 | 4.0 | 11.0 | 0.00 | 0.20 | 0.01 | 84 | 1004.3 |
| 20260509064015 | 52 | 86 | 3.0 | 10.0 | 0.00 | 0.20 | 0.01 | 85 | 1004.2 |
| 20260509063015 | 52 | 67 | 6.0 | 11.0 | 0.00 | 0.20 | 0.01 | 85 | 1004.1 |
| 20260509062015 | 52 | 66 | 4.0 | 11.0 | 0.00 | 0.20 | 0.01 | 87 | 1004.1 |
| 20260509061015 | 51 | 34 | 4.0 | 8.0 | 0.00 | 0.20 | 0.01 | 88 | 1004.1 |
| 20260509060015 | 51 | 58 | 3.0 | 8.0 | 0.00 | 0.20 | 0.01 | 89 | 1004.5 |
| 20260509055015 | 51 | 72 | 4.0 | 9.0 | 0.00 | 0.20 | 0.01 | 90 | 1004.6 |
| 20260509054015 | 51 | 69 | 2.0 | 8.0 | 0.00 | 0.20 | 0.01 | 90 | 1004.5 |
| 20260509053015 | 51 | 69 | 2.0 | 7.0 | 0.00 | 0.20 | 0.01 | 90 | 1004.3 |
| 20260509052015 | 51 | 59 | 4.0 | 8.0 | 0.00 | 0.20 | 0.01 | 91 | 1004.3 |
| 20260509051015 | 51 | 76 | 3.0 | 8.0 | 0.00 | 0.20 | 0.01 | 91 | 1004.1 |
| 20260509050015 | 51 | 82 | 4.0 | 11.0 | 0.00 | 0.20 | 0.01 | 90 | 1004.1 |
| 20260509045015 | 51 | 76 | 4.0 | 12.0 | 0.00 | 0.20 | 0.01 | 90 | 1004.0 |
| 20260509044015 | 51 | 76 | 5.0 | 10.0 | 0.00 | 0.20 | 0.01 | 88 | 1003.8 |
| 20260509043015 | 51 | 84 | 4.0 | 11.0 | 0.00 | 0.20 | 0.01 | 86 | 1003.8 |
| 20260509042015 | 51 | 73 | 5.0 | 15.0 | 0.00 | 0.20 | 0.01 | 85 | 1004.1 |
| 20260509041015 | 52 | 72 | 6.0 | 15.0 | 0.00 | 0.20 | 0.01 | 83 | 1003.9 |
| 20260509040015 | 51 | 94 | 4.0 | 11.0 | 0.00 | 0.20 | 0.01 | 85 | 1004.1 |
| 20260509035015 | 51 | 79 | 5.0 | 9.0 | 0.00 | 0.20 | 0.01 | 85 | 1004.1 |
| 20260509034015 | 52 | 81 | 4.0 | 14.0 | 0.00 | 0.20 | 0.01 | 83 | 1004.3 |
| 20260509033015 | 52 | 92 | 6.0 | 12.0 | 0.00 | 0.20 | 0.01 | 83 | 1004.4 |
| 20260509032014 | 52 | 77 | 5.0 | 14.0 | 0.00 | 0.20 | 0.01 | 84 | 1004.4 |
| 20260509031015 | 52 | 119 | 4.0 | 12.0 | 0.00 | 0.20 | 0.01 | 84 | 1004.5 |
| 20260509030015 | 52 | 98 | 3.0 | 16.0 | 0.00 | 0.20 | 0.01 | 85 | 1004.6 |
| 20260509025015 | 52 | 84 | 4.0 | 15.0 | 0.00 | 0.20 | 0.01 | 85 | 1004.6 |
| 20260509024015 | 51 | 87 | 6.0 | 13.0 | 0.00 | 0.20 | 0.01 | 86 | 1004.7 |
| 20260509023015 | 51 | 80 | 2.0 | 13.0 | 0.00 | 0.20 | 0.01 | 86 | 1004.8 |
| 20260509022015 | 51 | 90 | 4.0 | 15.0 | 0.00 | 0.20 | 0.01 | 85 | 1004.6 |
| 20260509021015 | 51 | 90 | 5.0 | 15.0 | 0.00 | 0.20 | 0.01 | 86 | 1004.7 |
| 20260509020015 | 51 | 94 | 6.0 | 15.0 | 0.00 | 0.20 | 0.01 | 88 | 1005.0 |
| 20260509015015 | 51 | 106 | 4.0 | 9.0 | 0.00 | 0.20 | 0.01 | 87 | 1004.9 |
| 20260509014014 | 51 | 99 | 4.0 | 15.0 | 0.00 | 0.20 | 0.01 | 87 | 1005.0 |
| 20260509013014 | 51 | 86 | 5.0 | 13.0 | 0.00 | 0.20 | 0.01 | 88 | 1005.2 |
| 20260509012014 | 51 | 77 | 4.0 | 11.0 | 0.00 | 0.20 | 0.01 | 87 | 1005.1 |
| 20260509011015 | 51 | 77 | 3.0 | 8.0 | 0.00 | 0.20 | 0.01 | 87 | 1005.2 |
| 20260509010015 | 50 | 80 | 4.0 | 9.0 | 0.00 | 0.20 | 0.01 | 88 | 1005.6 |
| 20260509005015 | 50 | 73 | 2.0 | 9.0 | 0.01 | 0.21 | 0.01 | 88 | 1005.8 |
| 20260509004015 | 50 | 90 | 5.0 | 11.0 | 0.01 | 0.21 | 0.01 | 88 | 1005.8 |
| 20260509003015 | 50 | 69 | 3.0 | 6.0 | 0.01 | 0.21 | 0.01 | 90 | 1005.9 |
| 20260509002015 | 49 | 90 | 3.0 | 5.0 | 0.01 | 0.21 | 0.01 | 90 | 1005.9 |
| 20260509001015 | 49 | 92 | 1.0 | 7.0 | 0.01 | 0.21 | 0.01 | 90 | 1006.2 |
| 20260509000014 | 49 | 91 | 3.0 | 12.0 | 0.01 | 0.21 | 0.01 | 91 | 1006.3 |
| 20260508235014 | 49 | 93 | 4.0 | 10.0 | 0.00 | 0.20 | 0.00 | 95 | 1006.2 |
| 20260508234014 | 47 | 105 | 3.0 | 8.0 | 0.00 | 0.20 | 0.00 | 99 | 1006.4 |
| 20260508233015 | 47 | 107 | 4.0 | 7.0 | 0.00 | 0.20 | 0.00 | 99 | 1006.2 |
| 20260508232015 | 47 | 116 | 2.0 | 5.0 | 0.00 | 0.20 | 0.00 | 99 | 1006.1 |
| 20260508231015 | 47 | 86 | 2.0 | 4.0 | 0.00 | 0.20 | 0.00 | 99 | 1006.2 |
| 20260508230015 | 47 | 90 | 2.0 | 4.0 | 0.00 | 0.20 | 0.00 | 99 | 1006.1 |
| 20260508225014 | 47 | 79 | 1.0 | 6.0 | 0.00 | 0.20 | 0.00 | 99 | 1006.3 |
| 20260508224014 | 47 | 63 | 2.0 | 5.0 | 0.00 | 0.20 | 0.00 | 99 | 1006.3 |
| 20260508223017 | 47 | 74 | 2.0 | 4.0 | 0.00 | 0.20 | 0.00 | 99 | 1006.5 |
| 20260508222014 | 47 | 85 | 2.0 | 5.0 | 0.00 | 0.20 | 0.00 | 99 | 1006.4 |
| 20260508221014 | 47 | 101 | 2.0 | 4.0 | 0.00 | 0.20 | 0.00 | 99 | 1006.4 |
| 20260508220015 | 48 | 97 | 2.0 | 4.0 | 0.00 | 0.20 | 0.00 | 99 | 1006.6 |
| 20260508215014 | 49 | 86 | 1.0 | 3.0 | 0.00 | 0.20 | 0.20 | 99 | 1006.5 |
| 20260508214014 | 49 | 82 | 1.0 | 3.0 | 0.00 | 0.20 | 0.20 | 99 | 1006.5 |
| 20260508213014 | 49 | 111 | 1.0 | 4.0 | 0.00 | 0.20 | 0.20 | 99 | 1006.6 |
| 20260508212014 | 49 | 111 | 0.0 | 5.0 | 0.00 | 0.20 | 0.20 | 99 | 1006.6 |
| 20260508211014 | 50 | 117 | 2.0 | 5.0 | 0.00 | 0.20 | 0.20 | 99 | 1006.6 |
| 20260508210015 | 50 | 73 | 1.0 | 2.0 | 0.00 | 0.20 | 0.20 | 97 | 1006.6 |
| 20260508205515 | 50 | 22 | 0.0 | 3.0 | 0.00 | 0.20 | 0.20 | 96 | 1006.7 |
| 20260508205014 | 50 | 3 | 0.0 | 3.0 | 0.00 | 0.20 | 0.20 | 96 | 1006.7 |
| 20260508204514 | 50 | 311 | 2.0 | 2.0 | 0.00 | 0.20 | 0.20 | 96 | 1006.7 |
| 20260508204014 | 50 | 265 | 0.0 | 2.0 | 0.00 | 0.20 | 0.20 | 96 | 1006.8 |
| 20260508203514 | 50 | 203 | 0.0 | 1.0 | 0.00 | 0.20 | 0.20 | 95 | 1006.8 |
| 20260508203014 | 50 | 181 | 0.0 | 2.0 | 0.00 | 0.20 | 0.20 | 95 | 1006.8 |
| 20260508202514 | 50 | 181 | 0.0 | 2.0 | 0.00 | 0.20 | 0.20 | 94 | 1006.6 |
| 20260508202014 | 50 | 139 | 0.0 | 2.0 | 0.00 | 0.20 | 0.20 | 94 | 1006.6 |
| 20260508201514 | 50 | 111 | 0.0 | 2.0 | 0.00 | 0.20 | 0.20 | 93 | 1006.3 |
| 20260508201014 | 51 | 129 | 0.0 | 3.0 | 0.00 | 0.20 | 0.20 | 92 | 1006.3 |
| 20260508200515 | 51 | 137 | 2.0 | 3.0 | 0.00 | 0.20 | 0.20 | 90 | 1006.2 |
| 20260508200015 | 51 | 151 | 2.0 | 3.0 | 0.00 | 0.20 | 0.20 | 90 | 1006.2 |
| 20260508195514 | 51 | 152 | 0.0 | 2.0 | 0.00 | 0.24 | 0.20 | 90 | 1006.1 |
| 20260508195014 | 52 | 143 | 0.0 | 2.0 | 0.00 | 0.24 | 0.20 | 89 | 1006.0 |
| 20260508194517 | 52 | 137 | 0.0 | 2.0 | 0.00 | 0.24 | 0.20 | 88 | 1006.0 |
| 20260508194014 | 53 | 141 | 1.0 | 2.0 | 0.00 | 0.24 | 0.20 | 87 | 1006.0 |
| 20260508193514 | 53 | 147 | 1.0 | 2.0 | 0.00 | 0.24 | 0.20 | 86 | 1006.1 |
| 20260508193014 | 53 | 89 | 0.0 | 2.0 | 0.00 | 0.24 | 0.20 | 86 | 1006.0 |
| 20260508192514 | 54 | 32 | 0.0 | 2.0 | 0.00 | 0.25 | 0.20 | 85 | 1006.1 |
| 20260508192014 | 54 | 16 | 0.0 | 2.0 | 0.00 | 0.25 | 0.20 | 85 | 1005.9 |
| 20260508191515 | 54 | 1 | 1.0 | 2.0 | 0.00 | 0.25 | 0.20 | 85 | 1005.9 |
| 20260508191015 | 55 | 0 | 0.0 | 0.0 | 0.00 | 0.25 | 0.20 | 86 | 1006.1 |
| 20260508185015 | 55 | 309 | 1.0 | 3.0 | 0.00 | 0.25 | 0.20 | 86 | 1005.9 |
| 20260508184514 | 55 | 0 | 0.0 | 0.0 | 0.00 | 0.25 | 0.20 | 84 | 1005.9 |
| 20260508184014 | 55 | 0 | 0.0 | 0.0 | 0.00 | 0.25 | 0.20 | 83 | 1006.0 |
| 20260508183514 | 55 | 0 | 0.0 | 0.0 | 0.00 | 0.25 | 0.20 | 83 | 1005.8 |
| 20260508183014 | 54 | 0 | 0.0 | 0.0 | 0.00 | 0.25 | 0.20 | 82 | 1005.8 |
| 20260508182514 | 54 | 251 | 0.0 | 1.0 | 0.00 | 0.25 | 0.20 | 81 | 1005.6 |
| 20260508181514 | 54 | 190 | 0.0 | 4.0 | 0.00 | 0.25 | 0.20 | 80 | 1005.7 |
| 20260508181014 | 54 | 185 | 2.0 | 4.0 | 0.00 | 0.25 | 0.20 | 79 | 1005.7 |
| 20260508135801 | 51 | 98 | 5.0 | 10.0 | 0.02 | 0.15 | 0.09 | 84 | 1005.8 |
| 20260508134801 | 54 | 94 | 6.0 | 10.0 | 0.01 | 0.14 | 0.08 | 78 | 1005.8 |
| 20260508133801 | 55 | 198 | 0.0 | 3.0 | 0.01 | 0.14 | 0.08 | 84 | 1005.5 |
| 20260508132801 | 55 | 263 | 0.0 | 4.0 | 0.01 | 0.14 | 0.08 | 84 | 1005.5 |
| 20260508131801 | 56 | 224 | 0.0 | 2.0 | 0.01 | 0.14 | 0.08 | 83 | 1005.4 |
| 20260508130801 | 56 | 297 | 0.0 | 1.0 | 0.00 | 0.12 | 0.07 | 82 | 1005.3 |
| 20260508125801 | 56 | 352 | 0.0 | 3.0 | 0.00 | 0.12 | 0.07 | 82 | 1005.4 |
| 20260508124801 | 56 | 75 | 0.0 | 3.0 | 0.00 | 0.12 | 0.07 | 84 | 1005.6 |
| 20260508123801 | 55 | 92 | 0.0 | 4.0 | 0.00 | 0.12 | 0.07 | 83 | 1005.8 |
| 20260508122801 | 56 | 105 | 0.0 | 5.0 | 0.00 | 0.12 | 0.07 | 82 | 1005.9 |
| 20260508121801 | 56 | 55 | 0.0 | 6.0 | 0.00 | 0.12 | 0.07 | 88 | 1006.0 |
| 20260508120801 | 55 | 43 | 3.0 | 5.0 | 0.00 | 0.12 | 0.07 | 90 | 1006.1 |
| 20260508115801 | 54 | 78 | 0.0 | 8.0 | 0.00 | 0.12 | 0.07 | 91 | 1006.4 |
| 20260508114801 | 53 | 80 | 3.0 | 8.0 | 0.00 | 0.12 | 0.07 | 93 | 1006.4 |
| 20260508113801 | 53 | 71 | 2.0 | 4.0 | 0.00 | 0.12 | 0.07 | 94 | 1006.6 |
| 20260508112801 | 52 | 33 | 0.0 | 2.0 | 0.00 | 0.14 | 0.07 | 98 | 1006.7 |
| 20260508111801 | 51 | 188 | 0.0 | 4.0 | 0.01 | 0.14 | 0.07 | 99 | 1006.9 |
| 20260508110801 | 51 | 205 | 0.0 | 4.0 | 0.02 | 0.14 | 0.07 | 99 | 1006.8 |
| 20260508105801 | 50 | 39 | 0.0 | 2.0 | 0.02 | 0.14 | 0.07 | 99 | 1006.6 |
| 20260508104800 | 50 | 65 | 0.0 | 2.0 | 0.02 | 0.14 | 0.07 | 99 | 1007.1 |
| 20260508103801 | 49 | 252 | 0.0 | 3.0 | 0.02 | 0.14 | 0.07 | 99 | 1007.1 |
| 20260508102800 | 49 | 240 | 0.0 | 4.0 | 0.03 | 0.14 | 0.07 | 98 | 1006.9 |
| 20260508101800 | 49 | 240 | 1.0 | 7.0 | 0.02 | 0.12 | 0.05 | 97 | 1007.1 |
| 20260508100800 | 50 | 250 | 2.0 | 7.0 | 0.01 | 0.11 | 0.04 | 96 | 1007.1 |
| 20260508095800 | 51 | 216 | 1.0 | 9.0 | 0.01 | 0.11 | 0.04 | 96 | 1007.0 |
| 20260508094800 | 52 | 162 | 1.0 | 2.0 | 0.01 | 0.11 | 0.04 | 98 | 1006.8 |